Tracking 20092 objects as of 14-Dec-2019
HD Live streaming from Space Station
objects crossing your sky now

FENGYUN 1C DEB

Track FENGYUN 1C DEB now!
10-day predictions


NORAD ID: 36689
Int'l Code: 1999-025DZK
Perigee: 780.8 km
Apogee: 1,288.8 km
Inclination: 98.5 °
Period: 105.7 minutes
Semi major axis: 7405 km
RCS: 0.0112 m2 (small)
Launch date: May 10, 1999
Source: People's Republic of China (PRC)
Launch site: Taiyaun Space Center, China (TSC)

Note: This is SATELLITE DEBRIS
aabbcc
Your satellite tracking list
Your tracking list is empty




NASA's NSSDC Master Catalog

Two Line Element Set (TLE):
1 36689U 99025DZK 19347.08952362  .00000726  00000-0  66529-3 0  9992
2 36689  98.4771 118.2423 0343023 355.1930   4.5950 13.62214262582122
Source of the keplerian elements: AFSPC